Weather History for Bullhead City, AZ

Change the Weather History Date:

Tuesday, November 27, 2012

  Actual Average Record
Temperature  
Mean Temperature 60 °F -  
Max Temperature 73 °F 66 °F 75 °F (2014)
Min Temperature 46 °F 48 °F 32 °F (2010)
Degree Days  
Heating Degree Days 6    
Growing Degree Days 10 (Base 50)    
Moisture  
Dew Point 28 °F    
Average Humidity 32    
Maximum Humidity 57    
Minimum Humidity 16    
Precipitation  
Precipitation 0.00 in - - ()
Sea Level Pressure  
Sea Level Pressure 30.14 in    
Wind  
Wind Speed 4 mph (NNE)    
Max Wind Speed 16 mph    
Max Gust Speed 17 mph    
Visibility 10 miles    
Events      
Averages and records for this station are not official NWS values.
T = Trace of Precipitation, MM = Missing Value Source: NWS Daily Summary

Daily Weather History Graph

Daily Weather History Graph

Search for Another Location

Airport:

Trip Planner

Search our weather history database for the weather conditions in past years. The results will help you decide how hot, cold, wet, or windy it might be!

Date:

Astronomy

Nov. 27, 2012 Rise Set
Actual Time 7:25 AM MST 5:26 PM MST
Civil Twilight 6:57 AM MST 5:54 PM MST
Nautical Twilight 6:26 AM MST 6:25 PM MST
Astronomical Twilight 5:55 AM MST 6:56 PM MST
Moon 5:00 PM MST 6:34 AM MST
Length of Visible Light 10h 56m
Length of Day
10h 01m
Waxing Gibbous, 99% of the Moon is Illuminated
Nov 27
Waxing Gibbous
Nov 28
Full
Dec 6
Last Quarter
Dec 13
New
Dec 19
First Quarter

Hourly Weather History & Observations

Time (MST) Temp. Windchill Dew Point Humidity Pressure Visibility Wind Dir Wind Speed Gust Speed Precip Events Conditions
12:15 AM 59.0 °F - 28.4 °F 31% 30.14 in 10.0 mi NNE 5.8 mph - N/A   Clear
12:35 AM 57.2 °F - 32.0 °F 38% 30.14 in 10.0 mi NNE 3.5 mph - N/A   Clear
12:55 AM 55.4 °F - 30.2 °F 38% 30.15 in 10.0 mi Calm Calm - N/A   Clear
1:15 AM 57.2 °F - 32.0 °F 38% 30.14 in 10.0 mi Calm Calm - N/A   Clear
1:35 AM 55.4 °F - 28.4 °F 36% 30.14 in 10.0 mi Calm Calm - N/A   Clear
1:55 AM 55.4 °F - 28.4 °F 36% 30.14 in 10.0 mi NNE 4.6 mph - N/A   Clear
2:15 AM 55.4 °F - 28.4 °F 36% 30.14 in 10.0 mi NE 3.5 mph - N/A   Clear
2:35 AM 53.6 °F - 26.6 °F 35% 30.13 in 10.0 mi NNE 3.5 mph - N/A   Clear
2:55 AM 53.6 °F - 28.4 °F 38% 30.13 in 10.0 mi Calm Calm - N/A   Clear
3:15 AM 53.6 °F - 28.4 °F 38% 30.12 in 10.0 mi Calm Calm - N/A   Clear
3:35 AM 53.6 °F - 32.0 °F 44% 30.12 in 10.0 mi Calm Calm - N/A   Clear
3:55 AM 50.0 °F - 30.2 °F 47% 30.13 in 10.0 mi Calm Calm - N/A   Clear
4:15 AM 50.0 °F - 32.0 °F 50% 30.13 in 10.0 mi Calm Calm - N/A   Clear
4:35 AM 50.0 °F - 28.4 °F 43% 30.13 in 10.0 mi Calm Calm - N/A   Clear
4:55 AM 50.0 °F - 30.2 °F 47% 30.14 in 10.0 mi SSW 4.6 mph - N/A   Clear
5:15 AM 48.2 °F - 32.0 °F 54% 30.15 in 10.0 mi South 3.5 mph - N/A   Clear
5:35 AM 48.2 °F - 28.4 °F 46% 30.15 in 10.0 mi SE 4.6 mph - N/A   Clear
5:55 AM 46.4 °F - 28.4 °F 50% 30.16 in 10.0 mi Calm Calm - N/A   Clear
6:15 AM 46.4 °F - 32.0 °F 57% 30.16 in 10.0 mi Calm Calm - N/A   Clear
6:35 AM 48.2 °F - 32.0 °F 54% 30.17 in 10.0 mi Calm Calm - N/A   Clear
6:55 AM 46.4 °F 45.2 °F 32.0 °F 57% 30.18 in 10.0 mi ESE 3.5 mph - N/A   Clear
7:15 AM 48.2 °F - 32.0 °F 54% 30.18 in 10.0 mi Calm Calm - N/A   Clear
7:35 AM 46.4 °F - 30.2 °F 53% 30.19 in 10.0 mi Calm Calm - N/A   Clear
7:55 AM 48.2 °F - 32.0 °F 54% 30.20 in 10.0 mi Calm Calm - N/A   Clear
8:15 AM 48.2 °F - 32.0 °F 54% 30.20 in 10.0 mi Calm Calm - N/A   Clear
8:35 AM 50.0 °F - 32.0 °F 50% 30.21 in 10.0 mi Calm Calm - N/A   Clear
8:55 AM 50.0 °F - 30.2 °F 47% 30.22 in 10.0 mi Calm Calm - N/A   Clear
10:15 AM 55.4 °F - 28.4 °F 36% 30.23 in 10.0 mi SSW 4.6 mph - N/A   Clear
10:35 AM 57.2 °F - 28.4 °F 33% 30.22 in 10.0 mi Calm Calm - N/A   Clear
10:55 AM 59.0 °F - 28.4 °F 31% 30.22 in 10.0 mi Calm Calm - N/A   Clear
11:15 AM 62.6 °F - 28.4 °F 27% 30.21 in 10.0 mi North 9.2 mph - N/A   Clear
11:35 AM 66.2 °F - 26.6 °F 23% 30.19 in 10.0 mi North 15.0 mph - N/A   Clear
11:55 AM 66.2 °F - 26.6 °F 23% 30.18 in 10.0 mi North 12.7 mph - N/A   Clear
12:15 PM 68.0 °F - 26.6 °F 21% 30.18 in 10.0 mi NNE 11.5 mph - N/A   Clear
12:35 PM 69.8 °F - 26.6 °F 20% 30.16 in 10.0 mi North 13.8 mph 17.3 mph N/A   Clear
1:15 PM 71.6 °F - 26.6 °F 19% 30.14 in 10.0 mi North 15.0 mph - N/A   Clear
1:35 PM 71.6 °F - 24.8 °F 17% 30.14 in 10.0 mi NNE 13.8 mph - N/A   Clear
1:55 PM 71.6 °F - 24.8 °F 17% 30.13 in 10.0 mi North 16.1 mph - N/A   Clear
2:15 PM 73.4 °F - 24.8 °F 16% 30.13 in 10.0 mi North 13.8 mph 17.3 mph N/A   Clear
2:35 PM 73.4 °F - 24.8 °F 16% 30.12 in 10.0 mi NNE 12.7 mph 17.3 mph N/A   Clear
2:55 PM 73.4 °F - 24.8 °F 16% 30.11 in 10.0 mi NNE 15.0 mph - N/A   Clear
3:15 PM 73.4 °F - 24.8 °F 16% 30.10 in 10.0 mi North 10.4 mph - N/A   Clear
3:55 PM 73.4 °F - 26.6 °F 18% 30.09 in 10.0 mi North 11.5 mph - N/A   Clear
4:15 PM 73.4 °F - 26.6 °F 18% 30.09 in 10.0 mi North 10.4 mph - N/A   Clear
4:35 PM 73.4 °F - 24.8 °F 16% 30.09 in 10.0 mi North 9.2 mph - N/A   Clear
4:55 PM 71.6 °F - 24.8 °F 17% 30.09 in 10.0 mi NNE 9.2 mph - N/A   Clear
5:15 PM 71.6 °F - 24.8 °F 17% 30.08 in 10.0 mi NNE 5.8 mph - N/A   Clear
5:35 PM 68.0 °F - 24.8 °F 20% 30.08 in 10.0 mi NNE 5.8 mph - N/A   Clear
5:55 PM 68.0 °F - 24.8 °F 20% 30.09 in 10.0 mi NNE 3.5 mph - N/A   Clear
6:15 PM 68.0 °F - 24.8 °F 20% 30.09 in 10.0 mi NNE 4.6 mph - N/A   Clear
6:35 PM 68.0 °F - 26.6 °F 21% 30.10 in 10.0 mi Calm Calm - N/A   Clear
6:55 PM 66.2 °F - 28.4 °F 24% 30.11 in 10.0 mi Calm Calm - N/A   Clear
7:15 PM 66.2 °F - 26.6 °F 23% 30.11 in 10.0 mi Calm Calm - N/A   Clear
7:35 PM 66.2 °F - 26.6 °F 23% 30.11 in 10.0 mi Calm Calm - N/A   Clear
7:55 PM 64.4 °F - 26.6 °F 24% 30.11 in 10.0 mi North 3.5 mph - N/A   Clear
8:15 PM 64.4 °F - 26.6 °F 24% 30.11 in 10.0 mi North 3.5 mph - N/A   Clear
8:35 PM 66.2 °F - 24.8 °F 21% 30.11 in 10.0 mi North 9.2 mph - N/A   Clear
8:55 PM 66.2 °F - 26.6 °F 23% 30.11 in 10.0 mi North 4.6 mph - N/A   Clear
9:15 PM 64.4 °F - 28.4 °F 26% 30.12 in 10.0 mi North 5.8 mph - N/A   Clear
9:35 PM 62.6 °F - 32.0 °F 32% 30.12 in 10.0 mi NNW 5.8 mph - N/A   Clear
9:55 PM 62.6 °F - 32.0 °F 32% 30.12 in 10.0 mi North 5.8 mph - N/A   Clear
10:15 PM 62.6 °F - 32.0 °F 32% 30.12 in 10.0 mi NNW 5.8 mph - N/A   Clear
10:35 PM 62.6 °F - 32.0 °F 32% 30.12 in 10.0 mi NNW 5.8 mph - N/A   Clear
10:55 PM 62.6 °F - 33.8 °F 34% 30.13 in 10.0 mi North 3.5 mph - N/A   Clear
11:15 PM 62.6 °F - 32.0 °F 32% 30.12 in 10.0 mi NNE 4.6 mph - N/A   Clear
11:35 PM 64.4 °F - 26.6 °F 24% 30.12 in 10.0 mi North 8.1 mph - N/A   Clear
11:55 PM 62.6 °F - 32.0 °F 32% 30.12 in 10.0 mi NNW 4.6 mph - N/A   Clear